Flag for Germany Weather past 2 weeks in Emsdetten, North Rhine-Westphalia, Germany

Now
39 °F

Passing clouds.


Feels Like: 33 °F
Forecast: 46 / 52 °F
Wind: 9 mph from West

Location: Muenster / Osnabrueck

Current Time: Dec 21, 2014 at 5:13:55 AM

Latest Report: Dec 21, 2014 at 4:50 AM


Visibility: N/A

Pressure: 30.33 "Hg

Humidity: 87%

Dew point: 36 °F

Location of EmsdettenLocation

Historic Weather in Emsdetten — Graph

°F

Emsdetten temperature yesterday

Maximum temperature yesterday: 46 °F (at 2:20 PM)
Minimum temperature yesterday: 39 °F (at 7:20 PM)
Average temperature yesterday: 43 °F

Past Weeks' High & Low Weather Summary

 TemperatureHumidityPressure
High55 °F (Dec 18, 6:20 PM)100% (Dec 6, 3:20 AM)30.36 "Hg (Dec 6, 3:20 AM)
Low34 °F (Dec 14, 1:20 AM)70% (Dec 10, 4:50 AM)29.33 "Hg (Dec 12, 12:50 PM)
Average42 °F90%29.90 "Hg
* Reported Dec 6 3:20 AM — Dec 21 3:50 AM, Emsdetten, Weather by CustomWeather, © 2014

Note: Actual official high and low records may vary slightly from our data, if they occured in-between our weather recording intervals... More about our weather records

Advertising

Emsdetten weather history for previous 24 hours

 ConditionsComfort  
Time TempWeatherWind HumidityBarometerVisibility
3:50 AM
Dec 21
39 °FClear.9 mph87%30.33 "Hg10 mi
3:20 AM39 °FPassing clouds.10 mph93%30.30 "HgN/A
2:50 AM39 °FPassing clouds.9 mph87%30.30 "HgN/A
2:20 AM39 °FPassing clouds.10 mph87%30.30 "HgN/A
1:20 AM39 °FClear.10 mph87%30.27 "Hg10 mi
12:50 AM39 °FClear.13 mph93%30.27 "Hg10 mi
12:20 AM39 °FPassing clouds.12 mph87%30.27 "HgN/A
11:50 PM
Dec 20
39 °FPassing clouds.10 mph87%30.24 "HgN/A
11:20 PM39 °FPassing clouds.12 mph87%30.24 "HgN/A
10:20 PM39 °FPassing clouds.13 mph87%30.21 "HgN/A
9:50 PM39 °FClear.13 mph87%30.18 "Hg10 mi
9:20 PM39 °FClear.13 mph87%30.15 "Hg10 mi
8:50 PM39 °FClear.14 mph87%30.15 "Hg10 mi
8:20 PM39 °FClear.12 mph87%30.15 "Hg10 mi
7:50 PM39 °FClear.13 mph87%30.12 "Hg10 mi
7:20 PM39 °FPassing clouds.13 mph87%30.09 "HgN/A
6:20 PM43 °FPassing clouds.20 mph81%30.04 "HgN/A
5:50 PM43 °FPassing clouds.17 mph81%30.04 "HgN/A
5:20 PM43 °FPassing clouds.18 mph81%30.01 "HgN/A
4:50 PM43 °FPassing clouds.18 mph87%30.01 "HgN/A
4:20 PM43 °FSprinkles. Passing clouds.20 mph87%30.01 "HgN/A
3:50 PM43 °FSprinkles. Partly sunny.20 mph87%29.98 "HgN/A
3:20 PM43 °FSprinkles. Partly sunny.21 mph87%29.95 "HgN/A
2:50 PM45 °FSprinkles. Broken clouds.24 mph81%29.95 "HgN/A
2:20 PM46 °FBroken clouds.20 mph76%29.95 "HgN/A
1:20 PM45 °FSprinkles. Partly sunny.22 mph81%29.95 "HgN/A
12:20 PM45 °FSprinkles. Partly sunny.25 mph81%29.98 "HgN/A
11:50 AM45 °FBroken clouds.21 mph81%29.98 "HgN/A
11:20 AM45 °FBroken clouds.21 mph81%29.98 "HgN/A
10:50 AM43 °FSprinkles. Broken clouds.22 mph87%30.01 "HgN/A
10:20 AM45 °FSprinkles. Broken clouds.21 mph81%30.01 "HgN/A
9:50 AM45 °FBroken clouds.20 mph81%30.01 "HgN/A
9:20 AM45 °FBroken clouds.22 mph81%30.01 "HgN/A
8:50 AM45 °FBroken clouds.21 mph81%30.01 "HgN/A
8:20 AM45 °FPartly cloudy.20 mph81%30.01 "HgN/A
7:50 AM43 °FPartly cloudy.20 mph87%30.01 "HgN/A
7:20 AM43 °FPassing clouds.17 mph87%30.01 "HgN/A
6:50 AM45 °FPassing clouds.18 mph81%30.04 "HgN/A
6:20 AM43 °FPassing clouds.20 mph87%30.04 "HgN/A
5:50 AM43 °FPartly cloudy.17 mph81%30.04 "HgN/A
5:20 AM43 °FPartly cloudy.15 mph81%30.04 "HgN/A
Weather by CustomWeather, © 2014

See weather overviewHow to use our weather pages